Regional Weather Roundup
Issued by NWS

Home | Current Version | Previous Version | Graphics & Text | Print | Product List | Glossary On
Versions: 1 2 3 4 5 6 7 8 9 10 11 12 13 14 15 16 17 18 19 20 21 22 23 24 25 26 27 28 29 30 31 32 33 34 35 36 37 38 39 40 41 42 43 44 45 46 47 48 49 50
000
ASUS43 KFSD 231710
RWRSD

WEATHER ROUNDUP FOR SOUTH DAKOTA
NATIONAL WEATHER SERVICE SIOUX FALLS SD
1200 PM CDT WED MAY 23 2018

NOTE: "FAIR" INDICATES FEW OR NO CLOUDS BELOW 12,000 FEET WITH NO
SIGNIFICANT WEATHER AND/OR OBSTRUCTIONS TO VISIBILITY.


SDZ001>005-009-010-012>017-231800-
NORTHWEST AND NORTH CENTRAL SOUTH DAKOTA

CITY           SKY/WX    TMP DP  RH WIND       PRES   REMARKS
BUFFALO          N/A     74  59  59 SE17      29.83F
FAITH            N/A     66  63  90 S10       29.90S
MOBRIDGE       CLOUDY    75  64  68 SE17G29   29.87F
$$

SDZ012>016-024>037-041>051-057-063-072>074-231800-
SOUTHWEST AND SOUTH CENTRAL SOUTH DAKOTA

CITY           SKY/WX    TMP DP  RH WIND       PRES   REMARKS
RAPID CTY ARPT SUNNY     69  59  70 S6        29.92S
PIERRE         PTSUNNY   76  67  73 MISG      29.86S
CUSTER         SUNNY     66  48  52 VRB6      30.01S
ELLSWORTH AFB  MOSUNNY   69  61  75 CALM      29.92S
PHILIP         CLOUDY    70  63  78 SW5       29.89R
PINE RIDGE     PTSUNNY   63  58  83 W8        29.96S
SPEARFISH      FAIR      68  55  64 NE7       29.93S
WINNER         FAIR      80  65  59 S16       29.91S
$$

SDZ004>011-016>023-039-040-231800-
NORTHEAST SOUTH DAKOTA

CITY           SKY/WX    TMP DP  RH WIND       PRES   REMARKS
ABERDEEN       MOSUNNY   73  66  78 SE24G35   29.96S
WATERTOWN      CLOUDY    65  64  97 E9        30.04F THUNDER
BROOKINGS      CLOUDY    73  64  73 SE18G25   30.06S
SISSETON         N/A     67  64  90 S15       30.04R
$$

SDZ017-020-022-023-036>040-048>070-231800-
SOUTHEAST SOUTH DAKOTA

CITY           SKY/WX    TMP DP  RH WIND       PRES   REMARKS
SIOUX FALLS    CLOUDY    77  67  71 SE17G26   30.04S
HURON          PTSUNNY   75  67  76 SE13G24   29.92F
CHAMBERLAIN    SUNNY     80  68  67 S20G25    29.90S
MITCHELL       LGT RAIN  75  67  76 E14       29.95F
YANKTON        MOSUNNY   84  67  56 SE14      29.99S
$$

ABBREVIATIONS USED IN REMARKS
   TC - TEMPERATURE IN CELSIUS
  WCI - WIND CHILL INDEX
   HX - HEAT INDEX
  VSB - VISIBILITY





USA.gov is the U.S. government's official web portal to all federal, state and local government web resources and services.